Location: Lawrence Hall of Science
(37.8785°N, 122.2415°W)
Time: 22:54:18
(UTC-08:00)

Daily predictions for brighter satellites

Satellite Brightness Start Highest point End
(mag) Time Altitude Azimuth Time Altitude Azimuth Time Altitude Azimuth
AQUARIUS 4.1 17:34:34 10° SSE 17:39:03 79° ENE 17:43:33 10° N
CZ-2C R/B 2.5 17:35:04 10° SSE 17:40:09 89° WSW 17:45:06 10° NNW
Lacrosse 5 3.5 17:35:56 10° W 17:40:17 27° NW 17:44:38 10° NNE
Cosmos 1763 Rocket 3.6 17:39:58 10° S 17:45:06 56° ESE 17:50:11 10° NNE
Cosmos 1328 Rocket 4.1 17:42:32 10° N 17:46:41 37° ENE 17:50:48 10° SSE
Cosmos 1515 Rocket 4.3 17:47:14 10° NNE 17:51:14 31° ENE 17:55:12 10° SE
SKYMED 2 4.0 17:48:36 10° NNE 17:52:45 43° E 17:56:53 10° S
Cosmos 1726 3.6 17:50:17 10° NNE 17:52:50 17° ENE 17:55:22 10° ESE
Cosmos 44 Rocket 4.2 17:49:52 10° S 17:54:26 33° ESE 17:58:59 10° NE
SMAP 3.5 17:50:46 10° S 17:55:23 70° WSW 18:00:03 10° NNW
SJ-6B 4.3 17:55:54 10° ESE 17:58:33 17° ENE 18:01:14 10° NNE
Cosmos 1634 Rocket 4.3 17:53:48 10° N 17:59:42 44° ENE 18:05:31 10° SSE
SPOT 3 Rocket 3.8 17:54:41 10° S 17:59:48 74° WSW 18:04:58 10° NNW
COSMOS 2441 4.4 17:58:30 10° SSE 18:03:23 86° ENE 18:08:16 10° N
BREEZE-M DEB (TANK) 3.0 18:00:51 10° SSW 18:03:26 31° SE 18:04:56 15° E
Thor Agena Rocket 4.0 17:58:21 10° N 18:03:34 67° WNW 18:08:42 10° SSW
Cosmos 2151 3.9 18:00:44 10° SSE 18:04:18 27° E 18:07:52 10° NNE
Cosmos 1500 Rocket 3.8 18:00:32 10° SSE 18:04:39 46° E 18:08:49 10° NNE
Cosmos 2150 Rocket 4.3 17:59:49 10° NNW 18:05:01 72° WSW 18:10:09 10° S
Meteor 1-28 Rocket 3.7 18:01:43 10° NNE 18:05:12 37° E 18:08:39 10° SSE
Cosmos 1151 Rocket 3.7 18:05:17 10° NNE 18:09:08 32° ENE 18:12:58 10° SE
OTV 4 0.3 18:06:33 10° W 18:09:32 86° N 18:11:32 18° E
Cosmos 1898 Rocket 4.5 18:04:40 10° NNW 18:09:51 53° WSW 18:15:00 10° S
Milstar 3 3.9 18:04:28 10° WSW 18:10:41 38° S 18:17:18 10° ESE
Cosmos 2333 4.2 18:05:46 10° SSW 18:11:23 88° WNW 18:17:01 10° NNE
Cosmos 540 Rocket 4.2 18:06:51 10° SSE 18:11:25 32° E 18:15:49 11° NE
IDEFIX/ARIANE 42P 3.9 18:06:58 10° S 18:11:54 43° W 18:16:53 10° NNW
OAO 3 Rocket 3.8 18:08:59 10° W 18:13:45 52° S 18:18:25 10° ESE
Cosmos 1844 Rocket 2.7 18:09:41 10° NNW 18:15:20 64° ENE 18:20:54 10° SSE
Atlas Centaur 2 3.5 18:12:22 10° WSW 18:16:29 25° SSW 18:19:56 10° SE
Cosmos 1125 Rocket 4.1 18:12:43 10° N 18:17:27 34° ENE 18:22:09 10° SE
Resurs 01 Rocket 3.3 18:23:00 15° NE 18:23:00 15° NE 18:24:25 10° NNE
USA 215 3.2 18:16:29 10° ESE 18:22:58 68° NE 18:29:29 10° NW
Cosmos 1980 4.0 18:18:09 10° S 18:23:33 48° ESE 18:28:28 13° NE
Cosmos 2360 Rocket 4.1 18:20:03 10° WSW 18:24:45 27° WNW 18:29:28 10° N
Cosmos 990 Rocket 4.3 18:19:30 10° NNW 18:24:45 71° WSW 18:29:58 10° S
CZ-3A R/B 3.7 18:23:18 10° NNW 18:27:39 28° NNE 18:29:46 21° ENE
Spot 2 Rocket 4.5 18:25:05 10° ESE 18:29:02 24° ENE 18:33:01 10° NNE
Cosmos 1340 Rocket 3.7 18:25:51 10° SSE 18:29:12 27° E 18:29:46 26° ENE
Cosmos 2333 Rocket 2.1 18:26:03 10° S 18:31:38 68° ESE 18:36:58 11° NNE
Cosmos 841 Rocket 4.1 18:31:57 10° SSW 18:37:07 57° WNW 18:42:20 10° N
NOSS 0 Rocket 3.9 18:31:33 10° SSW 18:37:43 71° ESE 18:43:27 12° NNE
Cosmos 2228 Rocket 4.1 18:35:17 10° NNW 18:39:31 48° W 18:43:46 10° SSW
Meteor 1-27 4.4 18:34:35 10° N 18:40:14 51° ENE 18:45:53 10° SSE
COSMO-SKYMED 1 3.4 18:36:32 10° N 18:40:45 50° WNW 18:44:56 10° SSW
Aureole 2 Rocket 3.6 18:38:18 10° SSE 18:40:43 27° ESE 18:40:43 27° ESE
SL-14 R/B 3.1 18:38:55 10° S 18:42:48 80° E 18:46:31 11° N
FENGYUN 3A 4.1 18:39:17 10° SE 18:44:05 35° ENE 18:48:55 10° N
Cosmos 2084 3.2 18:47:23 10° SW 18:51:18 77° WNW 18:52:44 37° NNE
Cosmos 2219 Rocket 2.6 18:47:14 10° SW 18:52:49 62° WNW 18:58:24 10° NNE
Cosmos 2279 Rocket 3.9 18:48:11 10° N 18:54:23 71° E 19:00:35 10° SSE
Cosmos 2278 Rocket 2.1 18:51:07 10° NNW 18:56:45 62° ENE 19:02:21 10° SSE
METEOR-M 4.1 18:55:47 10° SSE 19:01:07 84° WSW 19:06:31 10° NNW
Lacrosse 5 rocket 3.4 19:01:34 10° NNW 19:02:29 14° N 19:02:29 14° N
Cosmos 1844 4.2 19:00:55 10° NNW 19:06:37 63° WSW 19:12:18 10° S
Cosmos 1626 4.5 19:04:03 10° SSE 19:04:34 13° SSE 19:04:34 13° SSE
Cosmos 2180 Rocket 4.3 19:02:04 10° N 19:08:15 76° E 19:14:25 10° S
Meteor 2-10 3.9 19:03:46 10° N 19:08:51 89° ENE 19:14:02 10° S
ALOS 2.2 19:04:50 10° SSE 19:09:25 61° ENE 19:14:02 10° N
Abrixas rocket 4.3 19:07:47 10° W 19:10:35 25° SW 19:11:50 20° S
Hubble Space Telescope 3.1 19:08:28 10° SW 19:11:02 16° SSW 19:12:32 14° SSE
CENTAUR R/B 4.1 19:07:15 10° WSW 19:12:38 30° NW 19:18:21 11° NNE
Nadezhda 4 Rocket 4.0 19:07:18 10° SSE 19:13:22 57° E 19:16:27 29° NNE
Cosmos 1300 4.1 19:11:35 10° NNW 19:15:10 39° W 19:18:44 10° SSW
Cosmos 44 3.6 19:10:53 10° SW 19:16:11 72° WNW 19:17:58 41° NNE
Cosmos 2237 Rocket 2.6 19:15:05 10° SW 19:20:37 60° WNW 19:24:04 23° N
SL-16 R/B 2.2 19:18:13 10° S 19:23:27 59° ESE 19:23:27 59° ESE
Cosmos 2058 4.2 19:21:50 10° SSW 19:25:42 39° W 19:28:10 19° NNW
Cosmos 1726 4.4 19:25:01 10° NW 19:28:08 25° W 19:31:15 10° SSW
Cosmos 1092 Rocket 4.4 19:22:37 10° SSE 19:27:12 44° SE 19:27:12 44° SE
Cosmos 2297 4.4 19:27:51 10° NNW 19:31:34 39° N 19:31:34 39° N
Cosmos 1805 Rocket 4.1 19:30:00 10° SSW 19:34:22 59° W 19:34:39 57° WNW
Cosmos 372 Rocket 4.4 19:33:24 10° NNW 19:38:24 59° WSW 19:41:51 20° S
OTV 4 4.0 19:42:39 10° W 19:42:47 11° W 19:42:47 11° W
Resurs 01 Rocket 4.0 20:00:33 18° NW 20:00:33 18° NW 20:01:47 10° NNW
